This is the latest recevied weather packets stored in our database for station/object OK2ZA-6. If no packets are shown the sender has not sent any weather packets the latest 10 day(s).
| Time | Temp. | Humidity | Pressure | Rain* | Wind** | Luminosity | Snow |
|---|---|---|---|---|---|---|---|
| 1777549204 | 11.67° C | 35% | 1028.6 hPa | 0 mm | - | - | - |
| 1777548604 | 11.67° C | 32% | 1028.7 hPa | 0 mm | - | - | - |
| 1777548004 | 12.22° C | 33% | 1028.8 hPa | 0 mm | - | - | - |
| 1777547404 | 11.67° C | 33% | 1028.9 hPa | 0 mm | - | - | - |
| 1777546804 | 11.11° C | 34% | 1028.9 hPa | 0 mm | - | - | - |
| 1777546205 | 11.11° C | 36% | 1029 hPa | 0 mm | - | - | - |
| 1777545603 | 11.11° C | 36% | 1029.2 hPa | 0 mm | - | - | - |
| 1777545004 | 10° C | 39% | 1029.3 hPa | 0 mm | - | - | - |
| 1777544404 | 10° C | 37% | 1029.4 hPa | 0 mm | - | - | - |
| 1777543804 | 10° C | 37% | 1029.5 hPa | 0 mm | - | - | - |
| 1777543204 | 10° C | 36% | 1029.6 hPa | 0 mm | - | - | - |
| 1777542604 | 10° C | 39% | 1029.7 hPa | 0 mm | - | - | - |
| 1777542004 | 10° C | 40% | 1029.6 hPa | 0 mm | - | - | - |
| 1777541404 | 8.89° C | 39% | 1029.7 hPa | 0 mm | - | - | - |
| 1777540804 | 8.89° C | 42% | 1029.7 hPa | 0 mm | - | - | - |
| 1777540204 | 8.33° C | 40% | 1029.8 hPa | 0 mm | - | - | - |
| 1777539604 | 8.33° C | 41% | 1029.8 hPa | 0 mm | - | - | - |
| 1777539004 | 8.33° C | 42% | 1029.8 hPa | 0 mm | - | - | - |
| 1777538403 | 8.33° C | 42% | 1029.9 hPa | 0 mm | - | - | - |
| 1777537804 | 7.78° C | 42% | 1029.9 hPa | 0 mm | - | - | - |
| 1777537204 | 7.22° C | 44% | 1029.9 hPa | 0 mm | - | - | - |
| 1777536604 | 7.22° C | 45% | 1029.9 hPa | 0 mm | - | - | - |
| 1777536004 | 6.67° C | 45% | 1030 hPa | 0 mm | - | - | - |
| 1777535404 | 6.67° C | 43% | 1030.1 hPa | 0 mm | - | - | - |
| 1777534804 | 7.22° C | 42% | 1030.1 hPa | 0 mm | - | - | - |
* Rain latest hour (hover to see other rain measurements)
** Current wind speed in m/s (hover to see current wind gust speed)